Wind_Speed
23 22 24 26 27 27 25 25 25 23 22 22 21 20 19 19 19 20 21 20 19 18 19 19 20 19 19 18 19 20 21 22 23 24 24 25 25 26 27 29 30 31
22 22 24 25 27 27 26 25 25 23 21 20 20 19 19 20 21 21 20 19 18 19 20 20 20 19 19 19 20 21 22 23 24 25 26 26 27 28 29 30 31 32
22 23 24 26 27 26 25 24 23 22 20 19 19 18 19 20 20 19 18 19 19 20 21 21 20 19 20 21 22 23 24 25 26 27 27 28 28 29 30 30 31 32
23 24 25 26 26 26 25 24 22 20 19 18 17 17 18 19 18 18 18 19 20 21 21 21 20 20 21 23 24 25 25 26 27 27 28 28 29 30 30 30 31 32
23 24 25 26 25 25 25 23 21 19 18 17 17 17 18 18 18 18 18 19 20 21 21 20 20 21 22 23 24 25 25 26 27 28 29 29 30 30 30 31 31 31
23 23 24 24 23 23 23 22 21 19 17 17 16 17 18 18 18 18 18 19 20 20 20 20 20 21 22 23 24 25 25 26 27 28 29 30 30 30 30 31 31 31
22 23 24 25 24 22 20 19 19 18 18 17 17 18 18 18 18 18 18 19 19 19 19 19 20 21 22 23 23 24 25 26 27 28 29 29 29 29 30 30 31 32
22 23 24 25 24 21 18 18 18 19 18 17 17 18 18 18 18 18 19 18 18 19 19 20 20 21 22 23 23 24 25 26 28 28 28 28 28 28 29 30 32 33
22 22 22 22 21 20 18 17 18 18 17 17 17 18 18 18 18 19 19 18 19 19 20 21 21 22 24 24 25 26 26 27 28 28 27 26 26 28 29 31 32 33
22 21 20 20 19 18 17 16 17 18 18 17 18 18 18 18 19 20 20 20 20 20 21 22 24 25 26 26 27 27 28 29 29 27 25 25 27 28 30 31 32 33
23 20 20 19 17 16 16 16 17 18 19 19 19 19 20 20 21 21 21 21 21 21 23 24 25 26 27 27 27 28 29 30 28 26 26 27 28 29 30 31 32 33
22 20 20 19 17 16 16 17 18 19 19 20 20 20 21 21 22 22 21 21 21 22 23 23 24 25 26 27 27 27 27 27 26 27 28 28 28 29 30 31 32 33
20 20 20 18 16 16 16 16 17 18 18 18 19 19 21 22 22 22 21 21 21 22 21 21 22 23 25 26 27 28 27 26 26 27 27 27 28 29 30 31 32 32
18 20 19 16 15 15 15 16 16 16 16 16 17 18 19 21 21 21 21 21 21 20 20 21 21 23 24 26 28 28 28 27 27 27 27 28 29 30 30 31 30 29
18 20 19 15 14 14 15 15 15 14 14 15 16 17 18 20 20 21 21 21 20 20 20 22 22 24 26 27 28 29 28 27 27 28 28 29 29 29 29 28 28 28
19 20 18 15 14 15 16 16 16 15 15 15 16 17 18 20 21 22 22 22 21 21 22 24 25 26 27 27 28 28 27 27 27 28 28 28 28 28 27 27 27 27
20 21 18 15 15 17 18 18 17 16 16 16 16 17 19 21 23 24 24 24 24 24 25 27 27 27 27 27 27 26 25 26 27 27 27 27 26 25 25 26 26 26
20 22 21 18 17 18 18 19 20 21 20 18 17 18 20 22 23 24 24 24 24 24 25 26 26 26 26 26 25 24 25 26 26 26 25 24 24 24 25 25 26 26
19 22 23 20 18 17 18 20 23 23 21 18 18 20 21 22 22 22 21 21 22 22 23 24 24 24 24 24 24 24 25 25 24 24 23 23 23 23 24 24 25 27
19 20 21 19 17 18 19 20 20 19 18 18 19 20 20 21 21 20 19 19 20 21 21 22 22 22 22 23 23 24 24 23 22 22 22 22 22 23 23 25 26 28
19 19 20 20 20 20 20 19 18 17 18 20 20 20 20 19 18 18 18 19 20 20 20 20 20 21 22 23 23 22 21 21 21 21 21 22 22 23 24 25 27 29
19 20 21 22 23 22 21 20 19 19 20 20 20 20 19 18 18 18 19 20 20 19 19 20 20 21 22 22 21 20 20 20 21 21 21 21 22 23 25 26 28 29
22 22 23 25 25 23 21 20 20 20 21 20 20 20 19 19 19 20 20 20 19 19 20 20 21 21 21 20 19 19 20 20 20 20 20 21 22 24 26 27 28 29
25 24 24 24 24 22 21 21 22 22 22 21 20 20 20 20 20 20 20 20 19 19 20 20 20 19 19 18 18 19 20 20 20 19 20 21 23 25 26 27 29 30
25 25 24 23 23 23 23 23 23 23 22 21 20 20 20 20 20 20 19 19 19 19 19 19 18 18 17 18 18 19 20 19 19 19 20 22 24 25 26 28 29 30
24 24 23 23 23 23 23 23 22 22 21 20 20 20 20 20 19 19 19 19 19 19 18 18 17 17 17 18 19 20 19 19 19 19 21 23 24 25 27 28 30 31
Wind_Direction
211 214 214 212 211 214 217 221 228 228 227 232 236 238 241 244 245 246 250 252 251 251 252 253 254 254 256 260 264 268 271 272 274 276 279 282 285 288 291 292 294 295
209 216 217 215 214 218 222 225 227 229 231 233 235 236 240 243 244 246 247 248 250 253 256 256 255 255 259 263 266 268 270 272 274 276 279 283 286 289 291 292 294 295
215 222 222 219 217 220 225 227 230 231 232 232 232 235 241 244 244 245 246 248 253 255 256 255 255 258 262 264 266 268 270 272 275 278 281 285 287 290 291 293 295 297
223 226 224 222 221 222 223 225 231 230 228 230 234 239 242 242 241 243 247 251 254 255 255 255 257 260 263 265 268 270 272 275 278 282 285 287 290 292 294 296 297 298
227 228 226 222 222 225 224 226 231 229 229 236 239 238 236 236 240 245 250 253 255 255 256 257 260 263 265 268 271 274 277 280 283 285 287 289 292 294 296 297 298 299
226 228 226 221 220 225 229 230 232 232 238 242 238 234 233 237 244 249 252 254 255 257 259 261 263 265 268 271 275 278 281 284 286 288 289 290 293 295 297 298 300 303
226 226 223 219 216 220 229 231 230 236 243 242 236 235 237 242 247 250 251 254 256 259 261 263 265 268 271 275 277 280 284 288 290 291 291 293 294 297 299 302 304 307
228 227 224 220 216 216 221 225 228 236 241 239 237 237 240 245 248 250 252 255 257 259 261 264 267 270 273 276 279 284 289 293 295 296 295 296 298 300 302 304 306 307
224 222 221 219 216 216 220 225 230 236 237 237 238 238 241 244 247 250 253 256 258 260 263 266 269 272 275 278 283 288 294 297 299 300 299 299 301 302 303 304 306 308
214 213 214 214 216 222 226 229 233 237 239 242 242 241 242 244 247 251 254 256 259 263 266 269 272 276 280 284 289 292 294 296 298 300 302 303 303 302 303 305 308 311
207 205 207 212 217 226 232 234 237 242 247 248 246 244 244 246 249 252 255 259 263 267 269 272 276 281 286 290 294 295 294 294 295 298 302 303 302 303 305 309 312 314
203 204 208 212 217 226 234 238 242 247 249 249 248 246 246 248 250 254 259 264 268 271 275 279 284 288 290 292 297 300 299 297 296 299 301 302 303 306 310 312 314 315
203 207 213 217 224 234 241 244 248 251 252 252 251 249 249 252 255 260 265 268 272 276 281 287 290 291 291 292 297 301 301 299 299 300 302 304 307 310 313 314 315 315
211 210 212 220 231 240 246 250 253 255 256 256 255 254 255 257 261 265 268 269 273 278 283 286 290 293 295 296 298 299 300 301 302 303 305 308 310 312 314 314 314 314
223 216 215 223 234 240 246 250 250 252 256 259 259 259 260 261 263 265 266 268 271 275 280 286 292 296 296 297 299 300 301 303 304 305 307 310 312 313 313 313 312 313
229 222 223 232 237 240 244 245 243 245 252 259 262 263 265 265 264 263 264 265 267 272 280 286 289 291 292 296 301 303 303 303 304 306 308 310 311 311 311 310 311 312
233 227 229 238 242 243 245 244 244 247 253 260 265 268 269 267 265 264 263 264 266 271 278 281 283 287 292 297 301 302 302 302 303 305 308 309 309 309 308 309 310 312
238 230 235 245 247 249 251 250 251 254 255 259 265 271 272 270 266 264 264 266 270 274 278 280 284 290 294 297 299 301 301 302 304 306 307 307 306 306 307 309 310 311
242 236 241 246 247 251 256 258 260 261 261 264 268 271 274 273 269 266 268 272 277 281 283 286 289 292 294 296 298 299 301 303 304 304 303 303 304 305 308 310 311 312
247 244 245 246 248 254 259 262 266 268 269 271 270 271 274 275 273 273 276 281 284 286 288 290 291 292 293 295 296 298 301 302 302 301 301 302 305 308 311 312 313 314
252 251 251 252 257 260 261 262 266 269 269 270 272 273 274 274 275 277 280 283 285 286 288 289 290 291 292 294 296 299 300 300 299 300 302 305 309 312 314 315 315 316
255 254 254 256 260 262 262 263 265 265 265 268 271 273 274 273 275 278 281 283 284 285 287 288 289 290 292 295 297 298 298 298 299 301 305 310 313 315 316 316 317 318
258 256 256 258 260 262 262 264 265 263 263 265 267 269 271 273 277 279 281 282 283 284 286 287 288 290 293 295 297 296 297 298 300 305 309 313 316 317 317 317 318 320
259 258 258 258 260 262 264 267 268 266 264 263 264 265 268 272 276 278 279 280 281 282 284 286 288 291 294 295 295 296 297 300 303 308 312 315 317 317 317 318 320 322
257 256 257 258 259 261 264 266 265 263 262 261 262 265 268 272 274 276 276 278 280 282 285 288 290 292 293 294 294 296 298 301 305 309 312 316 317 317 318 320 322 323
255 256 256 258 259 262 264 262 258 257 258 259 261 265 269 273 274 275 277 280 283 286 288 290 291 291 292 293 294 296 299 302 305 309 313 316 317 318 319 321 323 324
Height
5790 5792 5791 5792 5793 5795 5797 5798 5798 5799 5800 5801 5802 5804 5805 5806 5807 5808 5808 5809 5810 5810 5810 5810 5810 5810 5809 5809 5809 5809 5809 5809 5808 5807 5806 5805 5804 5803 5802 5801 5800 5799
5789 5789 5789 5790 5791 5793 5795 5796 5797 5798 5798 5799 5800 5801 5803 5804 5805 5806 5807 5808 5808 5808 5808 5808 5808 5808 5808 5807 5807 5807 5807 5806 5805 5804 5803 5802 5801 5800 5799 5798 5797 5796
5786 5787 5787 5787 5789 5791 5793 5794 5796 5797 5796 5797 5799 5800 5801 5802 5803 5804 5805 5806 5806 5806 5806 5806 5806 5806 5806 5806 5805 5805 5804 5804 5803 5802 5801 5800 5798 5798 5796 5795 5794 5793
5784 5784 5785 5785 5787 5789 5791 5792 5794 5795 5795 5796 5797 5798 5799 5800 5801 5802 5803 5804 5804 5804 5804 5804 5804 5804 5804 5803 5803 5803 5802 5801 5800 5799 5798 5797 5796 5795 5793 5792 5791 5789
5782 5783 5783 5784 5786 5788 5789 5791 5793 5793 5793 5794 5795 5796 5797 5798 5800 5801 5801 5801 5802 5802 5802 5802 5802 5802 5801 5801 5801 5800 5799 5798 5797 5796 5795 5794 5792 5791 5790 5789 5787 5786
5780 5781 5781 5783 5786 5787 5788 5789 5790 5791 5791 5792 5793 5794 5795 5797 5798 5799 5799 5799 5800 5800 5800 5800 5800 5799 5799 5799 5798 5798 5797 5796 5794 5793 5791 5790 5789 5788 5787 5785 5784 5783
5778 5779 5779 5781 5784 5787 5787 5787 5788 5789 5789 5790 5791 5792 5794 5796 5796 5797 5797 5797 5797 5798 5798 5798 5797 5797 5797 5796 5796 5795 5794 5792 5791 5789 5788 5787 5786 5785 5784 5782 5781 5779
5776 5777 5778 5780 5783 5785 5785 5786 5786 5787 5788 5789 5790 5791 5793 5794 5794 5795 5795 5795 5795 5795 5795 5795 5795 5795 5794 5793 5793 5792 5791 5789 5788 5786 5785 5784 5783 5782 5781 5779 5778 5776
5774 5775 5777 5779 5781 5782 5783 5784 5785 5786 5787 5787 5788 5789 5791 5791 5792 5792 5793 5793 5793 5793 5793 5793 5793 5792 5791 5791 5790 5789 5788 5786 5785 5784 5782 5781 5781 5779 5778 5776 5775 5773
5772 5773 5775 5778 5779 5780 5781 5782 5783 5784 5785 5786 5787 5788 5789 5789 5790 5790 5791 5791 5791 5791 5791 5791 5790 5789 5789 5788 5787 5786 5785 5784 5782 5781 5780 5779 5778 5776 5775 5773 5771 5769
5770 5772 5774 5776 5778 5779 5780 5781 5782 5782 5783 5784 5785 5786 5786 5787 5787 5788 5789 5789 5789 5789 5788 5788 5787 5787 5786 5785 5784 5783 5782 5781 5780 5779 5778 5776 5775 5773 5772 5770 5768 5765
5770 5772 5773 5775 5777 5778 5779 5780 5780 5781 5782 5783 5783 5784 5785 5785 5785 5786 5786 5786 5786 5786 5785 5785 5784 5784 5783 5782 5781 5780 5779 5778 5777 5776 5775 5773 5772 5770 5768 5766 5764 5762
5771 5772 5773 5774 5776 5777 5777 5778 5779 5780 5781 5781 5782 5782 5783 5783 5783 5784 5784 5783 5783 5782 5782 5782 5781 5781 5780 5779 5778 5777 5776 5775 5774 5773 5772 5770 5768 5766 5764 5763 5761 5759
5770 5770 5771 5773 5774 5774 5775 5776 5777 5778 5779 5779 5780 5780 5780 5781 5781 5781 5781 5780 5780 5780 5779 5779 5778 5778 5777 5776 5775 5774 5773 5772 5771 5770 5768 5766 5765 5763 5761 5760 5758 5756
5767 5768 5770 5771 5772 5772 5773 5774 5775 5776 5777 5777 5777 5778 5778 5778 5778 5778 5777 5777 5777 5777 5777 5776 5776 5775 5774 5773 5772 5771 5770 5769 5768 5766 5765 5763 5762 5760 5759 5757 5755 5754
5766 5767 5768 5769 5770 5770 5771 5772 5773 5774 5774 5775 5775 5775 5776 5775 5775 5775 5775 5775 5775 5775 5774 5774 5773 5772 5771 5770 5769 5768 5767 5766 5765 5763 5762 5760 5759 5757 5756 5754 5753 5751
5764 5765 5766 5767 5767 5768 5769 5770 5771 5771 5772 5772 5773 5773 5773 5773 5772 5772 5772 5772 5772 5772 5771 5771 5770 5769 5768 5767 5766 5765 5764 5763 5762 5760 5759 5758 5756 5755 5754 5752 5750 5749
5762 5763 5763 5764 5765 5766 5767 5768 5768 5768 5769 5770 5770 5770 5770 5769 5769 5769 5769 5769 5769 5768 5768 5767 5766 5765 5765 5764 5763 5762 5761 5760 5759 5758 5756 5755 5754 5753 5751 5749 5748 5746
5759 5760 5761 5762 5763 5764 5764 5765 5765 5765 5766 5767 5767 5767 5767 5766 5766 5766 5766 5766 5766 5765 5764 5764 5763 5762 5762 5761 5760 5760 5759 5758 5756 5755 5754 5753 5751 5750 5748 5747 5745 5744
5757 5758 5759 5760 5761 5761 5762 5762 5763 5763 5763 5764 5764 5764 5764 5763 5763 5763 5763 5763 5762 5762 5761 5761 5760 5760 5759 5758 5758 5757 5756 5755 5754 5753 5751 5750 5749 5747 5746 5744 5743 5741
5756 5757 5757 5758 5758 5758 5759 5760 5760 5761 5761 5760 5760 5760 5761 5761 5761 5760 5760 5760 5759 5759 5759 5758 5758 5757 5756 5756 5755 5754 5753 5752 5751 5750 5749 5747 5746 5745 5743 5742 5740 5738
5754 5755 5755 5756 5755 5756 5756 5757 5758 5758 5758 5757 5758 5758 5758 5758 5758 5758 5758 5757 5757 5757 5756 5756 5755 5754 5754 5753 5752 5751 5751 5750 5748 5747 5746 5744 5743 5742 5741 5739 5738 5735
5751 5752 5753 5753 5753 5753 5754 5755 5755 5755 5755 5755 5755 5755 5756 5755 5755 5755 5755 5755 5755 5754 5753 5753 5752 5751 5751 5750 5749 5749 5748 5747 5746 5744 5743 5742 5741 5739 5738 5736 5735 5732
5747 5748 5749 5749 5750 5750 5751 5751 5751 5751 5752 5752 5753 5753 5753 5753 5753 5753 5752 5752 5752 5751 5751 5750 5749 5748 5748 5747 5747 5746 5745 5744 5743 5742 5741 5740 5738 5737 5735 5734 5731 5729
5744 5744 5745 5746 5747 5747 5748 5748 5748 5748 5749 5749 5750 5750 5750 5750 5750 5750 5750 5749 5749 5748 5748 5747 5746 5745 5745 5745 5744 5743 5742 5741 5740 5739 5738 5737 5736 5734 5732 5730 5728 5726
5741 5742 5742 5743 5743 5744 5744 5745 5745 5745 5746 5747 5747 5747 5747 5747 5747 5747 5746 5746 5745 5745 5744 5744 5743 5743 5742 5742 5741 5740 5740 5739 5738 5737 5736 5735 5733 5731 5729 5727 5725 5722